Regional Weather Roundup
Issued by NWS

Home | Current Version | Previous Version | Graphics & Text | Print | Product List | Glossary Off
Versions: 1 2 3 4 5 6 7 8 9 10 11 12 13 14 15 16 17 18 19 20 21 22 23 24 25 26 27 28 29 30 31 32 33 34 35 36 37 38 39 40 41 42 43 44 45 46 47 48 49 50

000
ASUS43 KTOP 050408
RWRKS

WEATHER ROUNDUP FOR KANSAS
NATIONAL WEATHER SERVICE GOODLAND KS
1100 PM CDT MON MAY 04 2015

NOTE:  "FAIR" INDICATES FEW OR NO CLOUDS BELOW 12,000 FEET WITH NO
SIGNIFICANT WEATHER AND/OR OBSTRUCTIONS TO VISIBILITY.

KSZ001>006-013>018-027>032-041>047-050500-
NORTHWEST KANSAS

CITY           SKY/WX    TMP DP  RH WIND       PRES   REMARKS
GOODLAND       CLOUDY    51  47  86 E10       30.12R
HAYS           CLOUDY    61  52  72 NE9       30.01F
HILL CITY      CLOUDY    59  54  83 NE3       30.09F HAZE
RUSSELL        LGT RAIN  61  59  93 E16       30.03F FOG
$$

KSZ061>065-074>080-084>089-050500-
SOUTHWEST KANSAS

CITY           SKY/WX    TMP DP  RH WIND       PRES   REMARKS
DODGE CITY     CLOUDY    61  56  83 N14       30.03R
ELKHART          N/A     57  51  80 N10         N/A
GARDEN CITY    LGT RAIN  56  54  93 NE17      30.03F
GREAT BEND     CLOUDY    61  55  82 N9        30.07R THUNDER
LIBERAL        CLOUDY    63  54  72 NE13      30.03R
PRATT          MOCLDY    68  57  68 SE7       30.05R
$$

KSZ066>073-081>083-090>101-050500-
SOUTHEAST KANSAS

CITY           SKY/WX    TMP DP  RH WIND       PRES   REMARKS
CHANUTE        PTCLDY    67  59  75 SE5       30.10R
COFFEYVILLE    CLEAR     67  57  70 SE3       30.08R
HUTCHINSON     CLOUDY    67  58  72 N12       30.06R
MEDICINE LODGE   N/A     69  59  70 S9        30.02R
NEWTON         CLOUDY    66  55  68 NE7       30.09R
PARSONS        PTCLDY    63  59  87 CALM      30.10R
WICHITA INTL   CLOUDY    71  57  61 SE8       30.05R
WICHITA JABRA  CLOUDY    68  57  68 SE6       30.06R
WICHITA MCCONL CLOUDY    70  58  65 SE7       30.06R
WINFIELD       CLOUDY    67  57  70 SE8       30.07R
$$

KSZ007>012-019>026-033>040-048>060-102>105-050500-
NORTHEAST KANSAS

CITY           SKY/WX    TMP DP  RH WIND       PRES   REMARKS
CONCORDIA      TSTM      61  60  97 SE7       30.08R FOG
EMPORIA        CLOUDY    65  58  78 N15       30.12R
LAWRENCE       CLOUDY    63  61  93 W6        30.13R
MANHATTAN      RAIN      61  59  93 SE8       30.09S FOG
MARYSVILLE     LGT RAIN  61  59  94 S10G18    30.08S
OLATHE IND     TSTM      64  62  93 W9        30.15R
OLATHE EXE     CLOUDY    65  62  90 NW12      30.11R THUNDER
SALINA         TSTM      65  61  87 NW9       30.09R
TOPEKA BILLARD CLOUDY    63  61  93 W14       30.17R
TOPEKA FORBES  CLOUDY    63  60  90 W15       30.16R
$$



USA.gov is the U.S. government's official web portal to all federal, state and local government web resources and services.